Time,TemperatureF,DewpointF,PressureIn,WindDirection,WindDirectionDegrees,WindSpeedMPH,WindSpeedGustMPH,Humidity,HourlyPrecipIn,Conditions,Clouds,dailyrainin,SoftwareType,DateUTC
2013-10-05 00:05:00,77.8,68.0,29.83,South,170,5.0,6.0,72,0.00,,,0.00,Wunderground v.1.15,2013-10-05 05:05:00,
2013-10-05 00:15:00,77.7,68.0,29.82,SSE,163,5.0,8.0,72,0.00,,,0.00,Wunderground v.1.15,2013-10-05 05:15:00,
2013-10-05 00:20:00,77.6,67.9,29.82,South,171,6.0,7.0,72,0.00,,,0.00,Wunderground v.1.15,2013-10-05 05:20:00,
2013-10-05 00:25:00,77.6,67.9,29.82,South,174,6.0,7.0,72,0.00,,,0.00,Wunderground v.1.15,2013-10-05 05:25:00,
2013-10-05 00:30:00,77.5,67.8,29.82,SSE,163,6.0,6.0,72,0.00,,,0.00,Wunderground v.1.15,2013-10-05 05:30:00,
2013-10-05 00:35:00,77.4,67.7,29.82,SSE,165,6.0,8.0,72,0.00,,,0.00,Wunderground v.1.15,2013-10-05 05:35:00,
2013-10-05 00:40:00,77.4,67.7,29.82,SSE,150,7.0,7.0,72,0.00,,,0.00,Wunderground v.1.15,2013-10-05 05:40:00,
2013-10-05 00:45:00,77.3,68.0,29.82,SSE,165,6.0,7.0,73,0.00,,,0.00,Wunderground v.1.15,2013-10-05 05:45:00,
2013-10-05 00:50:00,77.2,67.9,29.82,SE,146,5.0,7.0,73,0.00,,,0.00,Wunderground v.1.15,2013-10-05 05:50:00,
2013-10-05 00:55:00,77.1,67.8,29.82,SSE,161,5.0,7.0,73,0.00,,,0.00,Wunderground v.1.15,2013-10-05 05:55:00,
2013-10-05 01:00:00,77.1,67.8,29.82,SE,141,5.0,5.0,73,0.00,,,0.00,Wunderground v.1.15,2013-10-05 06:00:00,
2013-10-05 01:05:00,77.0,67.7,29.83,SSE,162,5.0,5.0,73,0.00,,,0.00,Wunderground v.1.15,2013-10-05 06:05:00,
2013-10-05 01:10:00,77.0,67.7,29.82,SSE,165,5.0,8.0,73,0.00,,,0.00,Wunderground v.1.15,2013-10-05 06:10:00,
2013-10-05 01:20:00,76.9,67.6,29.82,SE,136,5.0,5.0,73,0.00,,,0.00,Wunderground v.1.15,2013-10-05 06:20:00,
2013-10-05 01:25:00,76.9,68.0,29.82,SSE,160,5.0,5.0,74,0.00,,,0.00,Wunderground v.1.15,2013-10-05 06:25:00,
2013-10-05 01:30:00,76.8,67.9,29.82,South,169,5.0,7.0,74,0.00,,,0.00,Wunderground v.1.15,2013-10-05 06:30:00,
2013-10-05 01:35:00,76.7,67.8,29.82,SSE,155,6.0,7.0,74,0.00,,,0.00,Wunderground v.1.15,2013-10-05 06:35:00,
2013-10-05 01:45:00,76.4,67.9,29.82,South,178,7.0,7.0,75,0.00,,,0.00,Wunderground v.1.15,2013-10-05 06:45:00,
2013-10-05 01:50:00,76.4,67.9,29.82,SSE,166,6.0,6.0,75,0.00,,,0.00,Wunderground v.1.15,2013-10-05 06:50:00,
2013-10-05 01:55:00,76.4,67.9,29.82,South,190,6.0,8.0,75,0.00,,,0.00,Wunderground v.1.15,2013-10-05 06:55:00,
2013-10-05 02:00:00,76.3,67.8,29.82,SSE,161,6.0,6.0,75,0.00,,,0.00,Wunderground v.1.15,2013-10-05 07:00:00,
2013-10-05 02:10:00,76.2,68.1,29.82,SSE,161,7.0,7.0,76,0.00,,,0.00,Wunderground v.1.15,2013-10-05 07:10:00,
2013-10-05 02:15:00,76.1,68.0,29.82,South,183,6.0,8.0,76,0.00,,,0.00,Wunderground v.1.15,2013-10-05 07:15:00,
2013-10-05 02:25:00,76.1,68.0,29.83,SSE,157,5.0,6.0,76,0.00,,,0.00,Wunderground v.1.15,2013-10-05 07:25:00,
2013-10-05 02:30:00,76.1,68.0,29.84,SE,143,4.0,4.0,76,0.00,,,0.00,Wunderground v.1.15,2013-10-05 07:30:00,
2013-10-05 02:35:00,76.1,68.0,29.84,ESE,122,2.0,4.0,76,0.00,,,0.00,Wunderground v.1.15,2013-10-05 07:35:00,
2013-10-05 02:45:00,76.1,68.0,29.85,ESE,111,1.0,1.0,76,0.00,,,0.00,Wunderground v.1.15,2013-10-05 07:45:00,
2013-10-05 02:55:00,76.2,68.1,29.86,NE,39,1.0,1.0,76,0.00,,,0.00,Wunderground v.1.15,2013-10-05 07:55:00,
2013-10-05 03:00:00,76.2,67.7,29.86,NNW,344,1.0,1.0,75,0.00,,,0.00,Wunderground v.1.15,2013-10-05 08:00:00,
2013-10-05 03:05:00,76.3,67.8,29.85,SW,221,1.0,3.0,75,0.00,,,0.00,Wunderground v.1.15,2013-10-05 08:05:00,
2013-10-05 03:10:00,76.4,67.9,29.85,SSW,198,2.0,3.0,75,0.00,,,0.00,Wunderground v.1.15,2013-10-05 08:10:00,
2013-10-05 03:15:00,76.6,67.7,29.85,SSW,198,3.0,3.0,74,0.00,,,0.00,Wunderground v.1.15,2013-10-05 08:15:00,
2013-10-05 03:20:00,76.7,67.8,29.85,SSW,213,3.0,3.0,74,0.00,,,0.00,Wunderground v.1.15,2013-10-05 08:20:00,
2013-10-05 03:30:00,76.6,67.7,29.85,SSW,213,0.0,0.0,74,0.00,,,0.00,Wunderground v.1.15,2013-10-05 08:30:00,
2013-10-05 03:35:00,76.6,67.7,29.85,SSW,213,1.0,1.0,74,0.00,,,0.00,Wunderground v.1.15,2013-10-05 08:35:00,
2013-10-05 03:40:00,76.6,68.1,29.86,NW,306,1.0,2.0,75,0.00,,,0.00,Wunderground v.1.15,2013-10-05 08:40:00,
2013-10-05 03:45:00,75.7,65.6,29.88,NNW,334,3.0,11.0,71,0.00,,,0.00,Wunderground v.1.15,2013-10-05 08:45:00,
2013-10-05 03:55:00,70.0,62.1,29.88,NNW,347,9.0,11.0,76,0.00,,,0.00,Wunderground v.1.15,2013-10-05 08:55:00,
2013-10-05 04:00:00,69.3,62.1,29.88,North,5,9.0,9.0,78,0.00,,,0.00,Wunderground v.1.15,2013-10-05 09:00:00,
2013-10-05 04:10:00,67.6,61.2,29.88,North,355,8.0,8.0,80,0.24,,,0.02,Wunderground v.1.15,2013-10-05 09:10:00,
2013-10-05 04:20:00,65.2,59.9,29.88,North,11,9.0,9.0,83,0.05,,,0.02,Wunderground v.1.15,2013-10-05 09:20:00,
2013-10-05 04:30:00,64.0,59.7,29.88,NE,36,6.0,9.0,86,0.00,,,0.02,Wunderground v.1.15,2013-10-05 09:30:00,
2013-10-05 04:35:00,63.5,59.6,29.89,NNW,346,6.0,9.0,87,0.00,,,0.02,Wunderground v.1.15,2013-10-05 09:35:00,
2013-10-05 04:45:00,62.8,59.2,29.90,NNW,344,7.0,10.0,88,0.00,,,0.02,Wunderground v.1.15,2013-10-05 09:45:00,
2013-10-05 04:50:00,62.4,58.5,29.90,North,5,7.0,7.0,87,0.00,,,0.02,Wunderground v.1.15,2013-10-05 09:50:00,
2013-10-05 05:00:00,61.8,57.6,29.91,North,360,7.0,7.0,86,0.00,,,0.02,Wunderground v.1.15,2013-10-05 10:00:00,
2013-10-05 05:10:00,61.2,57.0,29.90,North,5,6.0,10.0,86,0.00,,,0.02,Wunderground v.1.15,2013-10-05 10:10:00,
2013-10-05 05:20:00,60.5,56.0,29.91,NNE,15,9.0,9.0,85,0.00,,,0.02,Wunderground v.1.15,2013-10-05 10:20:00,
2013-10-05 05:25:00,60.0,55.2,29.91,NW,326,10.0,15.0,84,0.00,,,0.02,Wunderground v.1.15,2013-10-05 10:25:00,
2013-10-05 05:35:00,59.2,54.4,29.92,North,355,8.0,10.0,84,0.00,,,0.02,Wunderground v.1.15,2013-10-05 10:35:00,
2013-10-05 05:45:00,58.0,53.2,29.92,North,350,10.0,16.0,84,0.00,,,0.02,Wunderground v.1.15,2013-10-05 10:45:00,
2013-10-05 05:50:00,57.8,53.3,29.92,North,349,9.0,9.0,85,0.00,,,0.02,Wunderground v.1.15,2013-10-05 10:50:00,
2013-10-05 05:55:00,57.3,52.5,29.92,North,355,9.0,11.0,84,0.00,,,0.02,Wunderground v.1.15,2013-10-05 10:55:00,
2013-10-05 06:00:00,56.6,52.1,29.93,North,11,11.0,11.0,85,0.00,,,0.02,Wunderground v.1.15,2013-10-05 11:00:00,
2013-10-05 06:05:00,56.1,52.0,29.94,North,5,11.0,11.0,86,0.00,,,0.02,Wunderground v.1.15,2013-10-05 11:05:00,
2013-10-05 06:10:00,55.9,51.8,29.95,North,11,9.0,9.0,86,0.00,,,0.02,Wunderground v.1.15,2013-10-05 11:10:00,
2013-10-05 06:15:00,55.6,51.5,29.95,North,360,8.0,11.0,86,0.00,,,0.02,Wunderground v.1.15,2013-10-05 11:15:00,
2013-10-05 06:20:00,55.4,51.3,29.94,NNE,14,10.0,10.0,86,0.00,,,0.02,Wunderground v.1.15,2013-10-05 11:20:00,
2013-10-05 06:30:00,55.1,50.4,29.95,North,5,8.0,12.0,84,0.00,,,0.02,Wunderground v.1.15,2013-10-05 11:30:00,
2013-10-05 06:35:00,54.8,49.7,29.95,North,355,9.0,12.0,83,0.00,,,0.02,Wunderground v.1.15,2013-10-05 11:35:00,
2013-10-05 06:40:00,54.5,49.4,29.96,North,5,11.0,11.0,83,0.00,,,0.02,Wunderground v.1.15,2013-10-05 11:40:00,
2013-10-05 06:45:00,54.5,49.4,29.96,NNE,15,10.0,11.0,83,0.00,,,0.02,Wunderground v.1.15,2013-10-05 11:45:00,
2013-10-05 06:50:00,54.5,49.1,29.96,North,351,11.0,16.0,82,0.00,,,0.02,Wunderground v.1.15,2013-10-05 11:50:00,
2013-10-05 06:55:00,54.4,48.7,29.96,NNE,31,12.0,16.0,81,0.00,,,0.02,Wunderground v.1.15,2013-10-05 11:55:00,
2013-10-05 07:05:00,54.4,48.0,29.97,North,5,11.0,14.0,79,0.00,,,0.02,Wunderground v.1.15,2013-10-05 12:05:00,
2013-10-05 07:15:00,54.2,46.4,29.98,NNE,15,11.0,11.0,75,0.00,,,0.02,Wunderground v.1.15,2013-10-05 12:15:00,
2013-10-05 07:20:00,54.0,46.3,29.98,North,5,11.0,11.0,75,0.00,,,0.02,Wunderground v.1.15,2013-10-05 12:20:00,
2013-10-05 07:25:00,53.9,45.8,29.98,NNE,14,11.0,11.0,74,0.00,,,0.02,Wunderground v.1.15,2013-10-05 12:25:00,
2013-10-05 07:30:00,53.7,46.0,29.98,North,355,12.0,12.0,75,0.00,,,0.02,Wunderground v.1.15,2013-10-05 12:30:00,
2013-10-05 07:40:00,53.5,45.8,29.99,NNW,348,12.0,12.0,75,0.00,,,0.02,Wunderground v.1.15,2013-10-05 12:40:00,
2013-10-05 07:45:00,53.5,45.8,29.99,NNW,336,10.0,12.0,75,0.00,,,0.02,Wunderground v.1.15,2013-10-05 12:45:00,
2013-10-05 07:50:00,53.5,45.8,30.00,North,360,10.0,13.0,75,0.00,,,0.02,Wunderground v.1.15,2013-10-05 12:50:00,
2013-10-05 08:00:00,53.2,45.5,30.00,NNE,28,10.0,10.0,75,0.00,,,0.02,Wunderground v.1.15,2013-10-05 13:00:00,
2013-10-05 08:10:00,53.2,45.8,30.00,North,355,10.0,13.0,76,0.00,,,0.02,Wunderground v.1.15,2013-10-05 13:10:00,
2013-10-05 08:20:00,53.3,45.6,30.02,North,355,9.0,9.0,75,0.00,,,0.02,Wunderground v.1.15,2013-10-05 13:20:00,
2013-10-05 08:25:00,53.3,45.6,30.02,North,9,9.0,10.0,75,0.00,,,0.02,Wunderground v.1.15,2013-10-05 13:25:00,
2013-10-05 08:30:00,53.3,45.2,30.02,North,5,9.0,9.0,74,0.00,,,0.02,Wunderground v.1.15,2013-10-05 13:30:00,
2013-10-05 08:40:00,53.3,44.9,30.02,North,351,10.0,10.0,73,0.00,,,0.02,Wunderground v.1.15,2013-10-05 13:40:00,
2013-10-05 08:45:00,53.4,44.6,30.02,NNE,12,11.0,15.0,72,0.00,,,0.02,Wunderground v.1.15,2013-10-05 13:45:00,
2013-10-05 08:55:00,53.5,43.6,30.03,North,11,11.0,12.0,69,0.00,,,0.02,Wunderground v.1.15,2013-10-05 13:55:00,
2013-10-05 09:00:00,53.6,43.3,30.03,North,360,11.0,12.0,68,0.00,,,0.02,Wunderground v.1.15,2013-10-05 14:00:00,
2013-10-05 09:10:00,53.6,42.5,30.04,NNW,338,11.0,14.0,66,0.00,,,0.02,Wunderground v.1.15,2013-10-05 14:10:00,
2013-10-05 09:15:00,53.6,42.5,30.04,NW,319,11.0,14.0,66,0.00,,,0.02,Wunderground v.1.15,2013-10-05 14:15:00,
2013-10-05 09:20:00,53.5,42.0,30.05,North,5,12.0,12.0,65,0.00,,,0.02,Wunderground v.1.15,2013-10-05 14:20:00,
2013-10-05 09:30:00,53.6,40.9,30.05,NNE,16,12.0,14.0,62,0.00,,,0.02,Wunderground v.1.15,2013-10-05 14:30:00,
2013-10-05 09:35:00,53.7,41.0,30.06,NNW,347,11.0,14.0,62,0.00,,,0.02,Wunderground v.1.15,2013-10-05 14:35:00,
2013-10-05 09:40:00,53.8,40.7,30.06,North,9,10.0,10.0,61,0.00,,,0.02,Wunderground v.1.15,2013-10-05 14:40:00,
2013-10-05 09:45:00,53.9,40.3,30.06,North,360,11.0,17.0,60,0.00,,,0.02,Wunderground v.1.15,2013-10-05 14:45:00,
2013-10-05 09:50:00,53.8,39.4,30.07,North,355,12.0,16.0,58,0.00,,,0.02,Wunderground v.1.15,2013-10-05 14:50:00,
2013-10-05 10:00:00,53.8,39.4,30.07,NNE,14,12.0,13.0,58,0.00,,,0.02,Wunderground v.1.15,2013-10-05 15:00:00,
2013-10-05 10:05:00,53.9,39.9,30.07,North,360,11.0,18.0,59,0.00,,,0.02,Wunderground v.1.15,2013-10-05 15:05:00,
2013-10-05 10:10:00,53.9,39.9,30.07,North,360,11.0,11.0,59,0.00,,,0.02,Wunderground v.1.15,2013-10-05 15:10:00,
2013-10-05 10:20:00,54.1,40.9,30.08,North,360,7.0,7.0,61,0.00,,,0.02,Wunderground v.1.15,2013-10-05 15:20:00,
2013-10-05 10:25:00,54.2,41.0,30.08,North,355,6.0,8.0,61,0.00,,,0.02,Wunderground v.1.15,2013-10-05 15:25:00,
2013-10-05 10:35:00,54.2,40.6,30.08,North,360,9.0,9.0,60,0.00,,,0.02,Wunderground v.1.15,2013-10-05 15:35:00,
2013-10-05 10:45:00,54.2,40.6,30.08,NNW,344,10.0,11.0,60,0.00,,,0.02,Wunderground v.1.15,2013-10-05 15:45:00,
2013-10-05 10:50:00,54.1,40.5,30.08,North,355,10.0,10.0,60,0.00,,,0.02,Wunderground v.1.15,2013-10-05 15:50:00,
2013-10-05 10:55:00,54.0,40.0,30.08,North,355,12.0,12.0,59,0.00,,,0.02,Wunderground v.1.15,2013-10-05 15:55:00,
2013-10-05 11:00:00,53.9,40.3,30.08,North,360,12.0,12.0,60,0.00,,,0.02,Wunderground v.1.15,2013-10-05 16:00:00,
2013-10-05 11:05:00,53.7,40.6,30.09,NNE,20,11.0,12.0,61,0.00,,,0.02,Wunderground v.1.15,2013-10-05 16:05:00,
2013-10-05 11:10:00,53.3,41.0,30.09,North,355,11.0,11.0,63,0.00,,,0.02,Wunderground v.1.15,2013-10-05 16:10:00,
2013-10-05 11:20:00,52.9,41.4,30.09,NNE,18,10.0,10.0,65,0.00,,,0.02,Wunderground v.1.15,2013-10-05 16:20:00,
2013-10-05 11:30:00,51.2,42.5,30.07,NE,38,10.0,10.0,72,1.14,,,0.10,Wunderground v.1.15,2013-10-05 16:30:00,
2013-10-05 11:40:00,49.2,43.9,30.10,NNE,15,7.0,7.0,82,0.95,,,0.31,Wunderground v.1.15,2013-10-05 16:40:00,
2013-10-05 11:50:00,49.1,44.2,30.10,North,355,5.0,7.0,83,0.06,,,0.32,Wunderground v.1.15,2013-10-05 16:50:00,
2013-10-05 11:55:00,49.6,44.3,30.10,North,10,5.0,7.0,82,0.30,,,0.34,Wunderground v.1.15,2013-10-05 16:55:00,
2013-10-05 12:05:00,50.1,44.5,30.11,NNE,13,5.0,6.0,81,0.05,,,0.34,Wunderground v.1.15,2013-10-05 17:05:00,
2013-10-05 12:10:00,50.2,44.3,30.11,NE,39,4.0,8.0,80,0.04,,,0.34,Wunderground v.1.15,2013-10-05 17:10:00,
2013-10-05 12:15:00,50.4,44.5,30.11,NNE,19,4.0,8.0,80,0.00,,,0.35,Wunderground v.1.15,2013-10-05 17:15:00,
2013-10-05 12:20:00,50.3,44.7,30.11,NNE,32,3.0,3.0,81,0.16,,,0.36,Wunderground v.1.15,2013-10-05 17:20:00,
2013-10-05 12:25:00,50.4,44.8,30.10,NNE,13,4.0,4.0,81,0.07,,,0.36,Wunderground v.1.15,2013-10-05 17:25:00,
2013-10-05 12:30:00,50.6,45.3,30.10,North,5,5.0,7.0,82,0.04,,,0.36,Wunderground v.1.15,2013-10-05 17:30:00,
2013-10-05 12:40:00,51.0,46.0,30.10,North,355,3.0,5.0,83,0.00,,,0.36,Wunderground v.1.15,2013-10-05 17:40:00,
2013-10-05 12:45:00,51.4,46.4,30.10,North,9,3.0,5.0,83,0.00,,,0.36,Wunderground v.1.15,2013-10-05 17:45:00,
2013-10-05 12:55:00,51.8,45.8,30.10,NNE,32,4.0,5.0,80,0.00,,,0.36,Wunderground v.1.15,2013-10-05 17:55:00,
2013-10-05 13:00:00,52.0,45.7,30.10,North,350,6.0,7.0,79,0.00,,,0.36,Wunderground v.1.15,2013-10-05 18:00:00,
2013-10-05 13:10:00,52.8,46.5,30.09,NNE,20,3.0,5.0,79,0.00,,,0.36,Wunderground v.1.15,2013-10-05 18:10:00,
2013-10-05 13:15:00,53.1,45.4,30.09,North,360,5.0,6.0,75,0.00,,,0.36,Wunderground v.1.15,2013-10-05 18:15:00,
2013-10-05 13:20:00,53.5,45.1,30.09,North,355,7.0,7.0,73,0.00,,,0.36,Wunderground v.1.15,2013-10-05 18:20:00,
2013-10-05 13:25:00,53.9,44.7,30.08,North,5,7.0,7.0,71,0.00,,,0.37,Wunderground v.1.15,2013-10-05 18:25:00,
2013-10-05 13:30:00,54.2,44.6,30.09,NNE,17,6.0,13.0,70,0.00,,,0.37,Wunderground v.1.15,2013-10-05 18:30:00,
2013-10-05 13:35:00,54.6,43.9,30.08,NNE,28,7.0,13.0,67,0.00,,,0.37,Wunderground v.1.15,2013-10-05 18:35:00,
2013-10-05 13:45:00,55.7,44.1,30.07,NNE,22,6.0,8.0,65,0.00,,,0.37,Wunderground v.1.15,2013-10-05 18:45:00,
2013-10-05 13:50:00,56.1,43.7,30.07,North,360,6.0,6.0,63,0.00,,,0.37,Wunderground v.1.15,2013-10-05 18:50:00,
2013-10-05 13:55:00,56.4,44.0,30.06,NE,51,6.0,9.0,63,0.00,,,0.37,Wunderground v.1.15,2013-10-05 18:55:00,
2013-10-05 14:00:00,56.5,43.6,30.07,NNE,24,6.0,6.0,62,0.00,,,0.37,Wunderground v.1.15,2013-10-05 19:00:00,
2013-10-05 14:05:00,56.9,43.6,30.07,NNE,17,6.0,6.0,61,0.00,,,0.37,Wunderground v.1.15,2013-10-05 19:05:00,
2013-10-05 14:15:00,57.2,43.9,30.06,NNE,19,5.0,6.0,61,0.00,,,0.37,Wunderground v.1.15,2013-10-05 19:15:00,
2013-10-05 14:20:00,57.2,43.0,30.06,NNE,19,5.0,7.0,59,0.00,,,0.37,Wunderground v.1.15,2013-10-05 19:20:00,
2013-10-05 14:25:00,57.1,42.9,30.06,North,5,6.0,7.0,59,0.00,,,0.37,Wunderground v.1.15,2013-10-05 19:25:00,
2013-10-05 14:30:00,57.2,43.4,30.06,North,5,5.0,6.0,60,0.00,,,0.37,Wunderground v.1.15,2013-10-05 19:30:00,
2013-10-05 14:40:00,57.1,43.8,30.05,NNW,344,5.0,6.0,61,0.00,,,0.37,Wunderground v.1.15,2013-10-05 19:40:00,
2013-10-05 14:45:00,57.0,43.2,30.05,North,350,6.0,7.0,60,0.00,,,0.37,Wunderground v.1.15,2013-10-05 19:45:00,
2013-10-05 14:50:00,56.8,43.1,30.05,North,355,7.0,7.0,60,0.00,,,0.37,Wunderground v.1.15,2013-10-05 19:50:00,
2013-10-05 14:55:00,56.7,43.8,30.06,North,350,7.0,8.0,62,0.00,,,0.37,Wunderground v.1.15,2013-10-05 19:55:00,
2013-10-05 15:00:00,56.7,44.2,30.10,North,355,5.0,5.0,63,0.00,,,0.37,Wunderground v.1.15,2013-10-05 20:00:00,
2013-10-05 15:05:00,56.7,44.2,30.12,WNW,291,3.0,5.0,63,0.00,,,0.37,Wunderground v.1.15,2013-10-05 20:05:00,
2013-10-05 15:10:00,56.7,44.7,30.08,NE,39,2.0,3.0,64,0.00,,,0.37,Wunderground v.1.15,2013-10-05 20:10:00,
2013-10-05 15:15:00,56.2,45.4,30.07,NE,50,3.0,4.0,67,0.24,,,0.40,Wunderground v.1.15,2013-10-05 20:15:00,
2013-10-05 15:20:00,55.6,46.0,30.06,NE,43,3.0,3.0,70,0.08,,,0.40,Wunderground v.1.15,2013-10-05 20:20:00,
2013-10-05 15:25:00,55.0,47.2,30.04,NNE,28,3.0,5.0,75,0.05,,,0.40,Wunderground v.1.15,2013-10-05 20:25:00,
2013-10-05 15:30:00,54.3,47.6,30.03,NNE,22,5.0,8.0,78,0.04,,,0.41,Wunderground v.1.15,2013-10-05 20:30:00,
2013-10-05 15:35:00,54.1,47.7,30.03,North,11,5.0,8.0,79,0.04,,,0.41,Wunderground v.1.15,2013-10-05 20:35:00,
2013-10-05 15:40:00,54.1,48.1,30.04,NNE,17,3.0,3.0,80,0.04,,,0.41,Wunderground v.1.15,2013-10-05 20:40:00,
2013-10-05 15:50:00,54.3,47.6,30.04,ENE,57,3.0,3.0,78,0.00,,,0.41,Wunderground v.1.15,2013-10-05 20:50:00,
2013-10-05 15:55:00,54.6,47.5,30.05,ENE,58,2.0,3.0,77,0.00,,,0.41,Wunderground v.1.15,2013-10-05 20:55:00,
2013-10-05 16:05:00,56.1,48.6,30.04,ENE,66,1.0,3.0,76,0.00,,,0.41,Wunderground v.1.15,2013-10-05 21:05:00,
2013-10-05 16:10:00,56.4,47.9,30.04,NE,34,2.0,3.0,73,0.00,,,0.41,Wunderground v.1.15,2013-10-05 21:10:00,
2013-10-05 16:15:00,56.6,48.4,30.05,ENE,75,2.0,3.0,74,0.00,,,0.41,Wunderground v.1.15,2013-10-05 21:15:00,
2013-10-05 16:20:00,56.8,48.6,30.04,East,88,2.0,2.0,74,0.00,,,0.41,Wunderground v.1.15,2013-10-05 21:20:00,
2013-10-05 16:25:00,56.9,48.7,30.04,East,96,2.0,2.0,74,0.00,,,0.41,Wunderground v.1.15,2013-10-05 21:25:00,
2013-10-05 16:30:00,57.1,48.5,30.04,East,96,1.0,2.0,73,0.00,,,0.41,Wunderground v.1.15,2013-10-05 21:30:00,
2013-10-05 16:40:00,57.4,48.4,30.04,East,96,1.0,1.0,72,0.00,,,0.41,Wunderground v.1.15,2013-10-05 21:40:00,
2013-10-05 16:50:00,58.0,48.6,30.04,East,96,1.0,1.0,71,0.00,,,0.41,Wunderground v.1.15,2013-10-05 21:50:00,
2013-10-05 16:55:00,58.4,48.7,30.04,East,86,1.0,2.0,70,0.00,,,0.41,Wunderground v.1.15,2013-10-05 21:55:00,
2013-10-05 17:00:00,58.8,48.6,30.03,East,86,2.0,3.0,69,0.00,,,0.41,Wunderground v.1.15,2013-10-05 22:00:00,
2013-10-05 17:05:00,59.0,48.8,30.03,ENE,76,3.0,4.0,69,0.00,,,0.41,Wunderground v.1.15,2013-10-05 22:05:00,
2013-10-05 17:10:00,59.2,49.4,30.03,ENE,71,4.0,4.0,70,0.00,,,0.41,Wunderground v.1.15,2013-10-05 22:10:00,
2013-10-05 17:15:00,59.4,49.2,30.03,NE,42,3.0,4.0,69,0.00,,,0.41,Wunderground v.1.15,2013-10-05 22:15:00,
2013-10-05 17:20:00,59.4,49.2,30.03,NE,51,4.0,5.0,69,0.00,,,0.41,Wunderground v.1.15,2013-10-05 22:20:00,
2013-10-05 17:25:00,59.5,48.9,30.03,NE,46,3.0,5.0,68,0.00,,,0.41,Wunderground v.1.15,2013-10-05 22:25:00,
2013-10-05 17:30:00,59.7,48.7,30.03,NE,55,2.0,2.0,67,0.00,,,0.41,Wunderground v.1.15,2013-10-05 22:30:00,
2013-10-05 17:40:00,59.9,48.9,30.03,NE,55,1.0,1.0,67,0.00,,,0.41,Wunderground v.1.15,2013-10-05 22:40:00,
2013-10-05 17:45:00,59.9,48.5,30.03,NE,55,1.0,1.0,66,0.00,,,0.41,Wunderground v.1.15,2013-10-05 22:45:00,
2013-10-05 17:50:00,60.2,49.6,30.03,NE,55,1.0,1.0,68,0.00,,,0.41,Wunderground v.1.15,2013-10-05 22:50:00,
2013-10-05 17:55:00,60.5,49.1,30.03,NE,55,0.0,1.0,66,0.00,,,0.41,Wunderground v.1.15,2013-10-05 22:55:00,
2013-10-05 18:00:00,60.6,49.2,30.03,NE,55,0.0,1.0,66,0.00,,,0.41,Wunderground v.1.15,2013-10-05 23:00:00,
2013-10-05 18:05:00,60.6,49.2,30.03,NE,55,1.0,2.0,66,0.00,,,0.41,Wunderground v.1.15,2013-10-05 23:05:00,
2013-10-05 18:10:00,60.6,49.2,30.04,NE,55,1.0,1.0,66,0.00,,,0.41,Wunderground v.1.15,2013-10-05 23:10:00,
2013-10-05 18:15:00,60.7,49.3,30.04,NE,55,1.0,1.0,66,0.00,,,0.41,Wunderground v.1.15,2013-10-05 23:15:00,
2013-10-05 18:25:00,60.9,49.9,30.05,NE,55,0.0,2.0,67,0.00,,,0.41,Wunderground v.1.15,2013-10-05 23:25:00,
2013-10-05 18:30:00,60.9,49.9,30.06,NE,55,0.0,0.0,67,0.00,,,0.41,Wunderground v.1.15,2013-10-05 23:30:00,
2013-10-05 18:35:00,60.9,49.9,30.06,SE,128,1.0,1.0,67,0.00,,,0.41,Wunderground v.1.15,2013-10-05 23:35:00,
2013-10-05 18:40:00,60.6,50.0,30.06,SSE,161,1.0,1.0,68,0.00,,,0.41,Wunderground v.1.15,2013-10-05 23:40:00,
2013-10-05 18:50:00,60.4,50.2,30.05,SSE,161,0.0,0.0,69,0.00,,,0.41,Wunderground v.1.15,2013-10-05 23:50:00,
2013-10-05 18:55:00,60.4,50.2,30.06,SSE,161,0.0,0.0,69,0.00,,,0.41,Wunderground v.1.15,2013-10-05 23:55:00,
2013-10-05 19:00:00,60.4,51.0,30.06,SSE,161,0.0,0.0,71,0.00,,,0.41,Wunderground v.1.15,2013-10-06 00:00:00,
2013-10-05 19:05:00,60.3,51.2,30.07,SSE,161,0.0,0.0,72,0.00,,,0.41,Wunderground v.1.15,2013-10-06 00:05:00,
2013-10-05 19:10:00,60.1,51.0,30.07,SSE,161,0.0,0.0,72,0.00,,,0.41,Wunderground v.1.15,2013-10-06 00:10:00,
2013-10-05 19:20:00,59.8,51.1,30.07,SSE,161,0.0,0.0,73,0.00,,,0.41,Wunderground v.1.15,2013-10-06 00:20:00,
2013-10-05 19:25:00,59.6,50.9,30.07,SSE,161,0.0,0.0,73,0.00,,,0.41,Wunderground v.1.15,2013-10-06 00:25:00,
2013-10-05 19:35:00,59.4,51.1,30.07,SSE,162,0.0,0.0,74,0.00,,,0.41,Wunderground v.1.15,2013-10-06 00:35:00,
2013-10-05 19:40:00,59.3,50.6,30.07,WSW,248,0.0,0.0,73,0.00,,,0.41,Wunderground v.1.15,2013-10-06 00:40:00,
2013-10-05 19:45:00,59.2,50.2,30.07,WSW,249,0.0,0.0,72,0.00,,,0.41,Wunderground v.1.15,2013-10-06 00:45:00,
2013-10-05 19:50:00,59.2,49.4,30.07,West,264,0.0,0.0,70,0.00,,,0.41,Wunderground v.1.15,2013-10-06 00:50:00,
2013-10-05 20:00:00,59.4,48.0,30.07,NNW,336,1.0,1.0,66,0.00,,,0.41,Wunderground v.1.15,2013-10-06 01:00:00,
2013-10-05 20:10:00,59.4,46.8,30.08,NNW,328,1.0,1.0,63,0.00,,,0.41,Wunderground v.1.15,2013-10-06 01:10:00,
2013-10-05 20:15:00,59.3,46.3,30.07,NNW,330,1.0,1.0,62,0.00,,,0.41,Wunderground v.1.15,2013-10-06 01:15:00,
2013-10-05 20:20:00,59.2,45.8,30.08,NNW,336,1.0,2.0,61,0.00,,,0.41,Wunderground v.1.15,2013-10-06 01:20:00,
2013-10-05 20:25:00,59.2,45.3,30.08,NNW,334,1.0,2.0,60,0.00,,,0.41,Wunderground v.1.15,2013-10-06 01:25:00,
2013-10-05 20:30:00,59.1,45.2,30.08,NNW,338,1.0,2.0,60,0.00,,,0.41,Wunderground v.1.15,2013-10-06 01:30:00,
2013-10-05 20:35:00,59.0,44.7,30.08,NNW,336,1.0,2.0,59,0.00,,,0.41,Wunderground v.1.15,2013-10-06 01:35:00,
2013-10-05 20:45:00,58.8,44.0,30.08,NNW,336,0.0,1.0,58,0.00,,,0.41,Wunderground v.1.15,2013-10-06 01:45:00,
2013-10-05 20:50:00,58.8,44.0,30.08,NNW,336,0.0,0.0,58,0.00,,,0.41,Wunderground v.1.15,2013-10-06 01:50:00,
2013-10-05 20:55:00,58.8,43.6,30.08,NNW,336,1.0,2.0,57,0.00,,,0.41,Wunderground v.1.15,2013-10-06 01:55:00,
2013-10-05 21:00:00,58.7,43.5,30.08,NNW,335,1.0,1.0,57,0.00,,,0.41,Wunderground v.1.15,2013-10-06 02:00:00,
2013-10-05 21:05:00,58.7,43.5,30.09,NNW,334,1.0,1.0,57,0.00,,,0.41,Wunderground v.1.15,2013-10-06 02:05:00,
2013-10-05 21:15:00,58.7,45.3,30.09,NNW,333,0.0,0.0,61,0.00,,,0.41,Wunderground v.1.15,2013-10-06 02:15:00,
2013-10-05 21:25:00,58.4,43.7,30.09,NNW,333,0.0,0.0,58,0.00,,,0.41,Wunderground v.1.15,2013-10-06 02:25:00,
2013-10-05 21:30:00,58.3,43.6,30.10,NNW,333,0.0,0.0,58,0.00,,,0.41,Wunderground v.1.15,2013-10-06 02:30:00,
2013-10-05 21:35:00,58.3,43.6,30.10,NNW,333,0.0,1.0,58,0.00,,,0.41,Wunderground v.1.15,2013-10-06 02:35:00,
2013-10-05 21:40:00,58.2,43.9,30.10,NNW,333,0.0,0.0,59,0.00,,,0.41,Wunderground v.1.15,2013-10-06 02:40:00,
2013-10-05 21:50:00,58.0,43.3,30.10,NNW,333,0.0,0.0,58,0.00,,,0.41,Wunderground v.1.15,2013-10-06 02:50:00,
2013-10-05 22:00:00,57.8,44.4,30.10,NNW,333,0.0,0.0,61,0.00,,,0.41,Wunderground v.1.15,2013-10-06 03:00:00,
2013-10-05 22:05:00,57.7,44.8,30.10,NNW,333,0.0,0.0,62,0.00,,,0.41,Wunderground v.1.15,2013-10-06 03:05:00,
2013-10-05 22:10:00,57.5,45.0,30.10,NNW,333,0.0,0.0,63,0.00,,,0.41,Wunderground v.1.15,2013-10-06 03:10:00,
2013-10-05 22:15:00,57.3,45.6,30.10,NNW,333,0.0,0.0,65,0.00,,,0.41,Wunderground v.1.15,2013-10-06 03:15:00,
2013-10-05 22:20:00,57.1,45.4,30.10,NNW,333,0.0,0.0,65,0.00,,,0.41,Wunderground v.1.15,2013-10-06 03:20:00,
2013-10-05 22:25:00,56.9,44.8,30.10,NNW,333,0.0,0.0,64,0.00,,,0.41,Wunderground v.1.15,2013-10-06 03:25:00,
2013-10-05 22:30:00,56.7,44.7,30.10,NNW,333,0.0,0.0,64,0.00,,,0.41,Wunderground v.1.15,2013-10-06 03:30:00,
2013-10-05 22:40:00,56.6,44.6,30.10,NNW,333,0.0,0.0,64,0.00,,,0.41,Wunderground v.1.15,2013-10-06 03:40:00,
2013-10-05 22:45:00,56.4,44.4,30.10,NNW,333,0.0,0.0,64,0.00,,,0.41,Wunderground v.1.15,2013-10-06 03:45:00,
2013-10-05 22:50:00,56.3,44.3,30.09,NNW,333,0.0,0.0,64,0.00,,,0.41,Wunderground v.1.15,2013-10-06 03:50:00,
2013-10-05 23:00:00,56.2,43.8,30.10,NNW,333,0.0,0.0,63,0.00,,,0.41,Wunderground v.1.15,2013-10-06 04:00:00,
2013-10-05 23:05:00,56.2,44.2,30.10,NNW,333,0.0,0.0,64,0.00,,,0.41,Wunderground v.1.15,2013-10-06 04:05:00,
2013-10-05 23:15:00,56.0,44.4,30.10,NNW,333,0.0,0.0,65,0.00,,,0.41,Wunderground v.1.15,2013-10-06 04:15:00,
2013-10-05 23:20:00,55.9,44.7,30.10,NNW,333,0.0,0.0,66,0.00,,,0.41,Wunderground v.1.15,2013-10-06 04:20:00,
2013-10-05 23:25:00,55.8,45.0,30.09,NNW,333,0.0,0.0,67,0.00,,,0.41,Wunderground v.1.15,2013-10-06 04:25:00,
2013-10-05 23:30:00,55.5,45.1,30.09,NNW,333,0.0,0.0,68,0.00,,,0.41,Wunderground v.1.15,2013-10-06 04:30:00,
2013-10-05 23:35:00,55.3,45.3,30.09,NNW,333,0.0,0.0,69,0.00,,,0.41,Wunderground v.1.15,2013-10-06 04:35:00,
2013-10-05 23:45:00,54.8,45.6,30.09,NNW,333,0.0,0.0,71,0.00,,,0.41,Wunderground v.1.15,2013-10-06 04:45:00,
2013-10-05 23:50:00,54.6,45.4,30.09,NNW,333,0.0,0.0,71,0.00,,,0.41,Wunderground v.1.15,2013-10-06 04:50:00,
2013-10-05 23:55:00,54.4,45.2,30.09,NNW,333,0.0,0.0,71,0.00,,,0.41,Wunderground v.1.15,2013-10-06 04:55:00,